Milwaukee Timmerman, WI

5:07 AM CDT on May 28, 2017 (GMT -0500)
Timmerman

Weather History for KMWC - March, 2014

Change the Weather History Date:

Sunday, March 2, 2014

  Actual Average Record
Temperature  
Mean Temperature 4 °F -  
Max Temperature 8 °F 39 °F 63 °F (1964)
Min Temperature 1 °F 22 °F -5 °F (1950)
Degree Days  
Heating Degree Days 60    
Moisture  
Dew Point -11 °F    
Average Humidity 51    
Maximum Humidity 66    
Minimum Humidity 31    
Precipitation  
Precipitation 0.00 in - - ()
Sea Level Pressure  
Sea Level Pressure 30.38 in    
Wind  
Wind Speed 11 mph (NW)    
Max Wind Speed 15 mph    
Max Gust Speed 18 mph    
Visibility 10 miles    
Events      
Averages and records for this station are not official NWS values.
T = Trace of Precipitation, MM = Missing Value Source: NWS Daily Summary

Daily Weather History Graph

Daily Weather History Graph

Search for Another Location

Airport or City:

Trip Planner

Search our weather history database for the weather conditions in past years. The results will help you decide how hot, cold, wet, or windy it might be!

Date:

Astronomy

Mar. 02, 2014 Rise Set
Actual Time 6:26 AM CST 5:42 PM CST
Civil Twilight 5:58 AM CST 6:11 PM CST
Nautical Twilight 5:25 AM CST 6:44 PM CST
Astronomical Twilight 4:52 AM CST 7:17 PM CST
Moon 6:54 AM CST (3/2) 7:42 PM CST (3/2)
Length of Visible Light 12h 13m
Length of Day
11h 16m
Waxing Crescent, 3% of the Moon is Illuminated
Mar 2
Waxing Crescent
Mar 8
First Quarter
Mar 16
Full
Mar 23
Last Quarter
Mar 30
New

Hourly Weather History & Observations

Time (CST) Temp. Windchill Dew Point Humidity Pressure Visibility Wind Dir Wind Speed Gust Speed Precip Events Conditions
12:15 AM 8.6 °F -7.7 °F -4.0 °F 57% 30.35 in 10.0 mi NNW 13.8 mph - N/A   Overcast
12:35 AM 8.6 °F -5.5 °F -4.0 °F 57% 30.36 in 10.0 mi NNW 10.4 mph - N/A   Overcast
12:55 AM 8.6 °F -3.7 °F -4.0 °F 57% 30.36 in 10.0 mi NW 8.1 mph - N/A   Overcast
1:15 AM 6.8 °F -8.6 °F -5.8 °F 56% 30.36 in 10.0 mi NW 11.5 mph 15.0 mph N/A   Overcast
1:35 AM 6.8 °F -9.3 °F -5.8 °F 56% 30.36 in 10.0 mi NNW 12.7 mph - N/A   Overcast
1:55 AM 6.8 °F -6.9 °F -5.8 °F 56% 30.36 in 10.0 mi NW 9.2 mph - N/A   Overcast
2:15 AM 6.8 °F -8.6 °F -5.8 °F 56% 30.35 in 10.0 mi NNW 11.5 mph - N/A   Overcast
2:35 AM 6.8 °F -7.8 °F -5.8 °F 56% 30.35 in 10.0 mi NW 10.4 mph 13.8 mph N/A   Overcast
2:55 AM 5.0 °F -12.3 °F -5.8 °F 61% 30.34 in 10.0 mi NNW 13.8 mph - N/A   Overcast
3:15 AM 5.0 °F -10.0 °F -5.8 °F 61% 30.35 in 10.0 mi NW 10.4 mph - N/A   Overcast
3:35 AM 5.0 °F -11.6 °F -5.8 °F 61% 30.35 in 10.0 mi NW 12.7 mph - N/A   Overcast
3:55 AM 5.0 °F -10.8 °F -5.8 °F 61% 30.35 in 10.0 mi NNW 11.5 mph - N/A   Overcast
4:15 AM 5.0 °F -11.6 °F -5.8 °F 61% 30.34 in 10.0 mi NNW 12.7 mph - N/A   Overcast
4:35 AM 5.0 °F -12.3 °F -5.8 °F 61% 30.36 in 10.0 mi NNW 13.8 mph - N/A   Overcast
4:55 AM 5.0 °F -13.0 °F -5.8 °F 61% 30.36 in 10.0 mi NW 15.0 mph - N/A   Overcast
5:15 AM 5.0 °F -12.3 °F -7.6 °F 56% 30.36 in 10.0 mi NNW 13.8 mph - N/A   Overcast
5:35 AM 5.0 °F -12.3 °F -7.6 °F 56% 30.36 in 10.0 mi NNW 13.8 mph - N/A   Overcast
5:55 AM 5.0 °F -10.8 °F -5.8 °F 61% 30.38 in 10.0 mi NNW 11.5 mph - N/A   Overcast
6:15 AM 3.2 °F -12.2 °F -5.8 °F 66% 30.37 in 10.0 mi NNW 10.4 mph - N/A   Overcast
6:35 AM 3.2 °F -11.3 °F -5.8 °F 66% 30.37 in 10.0 mi NNW 9.2 mph - N/A   Overcast
6:45 AM 3.2 °F -11.3 °F -5.8 °F 66% 30.37 in 10.0 mi NNW 9.2 mph - N/A   Overcast
7:45 AM 3.2 °F -12.2 °F -5.8 °F 66% 30.38 in 10.0 mi NNW 10.4 mph - N/A   Overcast
8:45 AM 3.2 °F -15.3 °F -7.6 °F 61% 30.40 in 10.0 mi NNW 15.0 mph - N/A   Overcast
9:45 AM 5.0 °F -12.3 °F -7.6 °F 56% 30.40 in 10.0 mi NW 13.8 mph - N/A   Overcast
10:45 AM 6.8 °F -10.0 °F -7.6 °F 52% 30.40 in 10.0 mi NNW 13.8 mph 18.4 mph N/A   Mostly Cloudy
11:45 AM 6.8 °F -10.0 °F -7.6 °F 52% 30.41 in 10.0 mi NW 13.8 mph - N/A   Scattered Clouds
12:45 PM 8.6 °F -7.7 °F -7.6 °F 48% 30.39 in 10.0 mi NW 13.8 mph 17.3 mph N/A   Clear
1:45 PM 6.8 °F -9.3 °F -13.0 °F 40% 30.36 in 10.0 mi NNW 12.7 mph - N/A   Clear
2:45 PM 6.8 °F -8.6 °F -13.0 °F 40% 30.37 in 10.0 mi WNW 11.5 mph - N/A   Clear
3:45 PM 6.8 °F -8.6 °F -16.6 °F 34% 30.37 in 10.0 mi NW 11.5 mph - N/A   Clear
4:45 PM 6.8 °F -5.9 °F -18.4 °F 31% 30.38 in 10.0 mi NW 8.1 mph - N/A   Clear
5:45 PM 3.2 °F -11.3 °F -16.6 °F 39% 30.38 in 10.0 mi WNW 9.2 mph - N/A   Clear
6:45 PM 1.4 °F -11.3 °F -16.6 °F 43% 30.39 in 10.0 mi WNW 6.9 mph - N/A   Clear
7:45 PM 1.4 °F -8.3 °F -16.6 °F 43% 30.40 in 10.0 mi West 4.6 mph - N/A   Clear
8:15 PM 3.2 °F -6.2 °F -16.6 °F 39% 30.40 in 10.0 mi West 4.6 mph - N/A   Clear
8:35 PM 1.4 °F -9.9 °F -16.6 °F 43% 30.40 in 10.0 mi West 5.8 mph - N/A   Clear
8:45 PM 1.4 °F -9.9 °F -16.6 °F 43% 30.39 in 10.0 mi West 5.8 mph - N/A   Clear
8:55 PM 1.4 °F -8.3 °F -16.6 °F 43% 30.40 in 10.0 mi West 4.6 mph - N/A   Clear
9:15 PM 1.4 °F -6.2 °F -16.6 °F 43% 30.41 in 10.0 mi WNW 3.5 mph - N/A   Clear
9:35 PM 1.4 °F -8.3 °F -18.4 °F 39% 30.43 in 10.0 mi WNW 4.6 mph - N/A   Clear
9:55 PM 1.4 °F -11.3 °F -18.4 °F 39% 30.43 in 10.0 mi NW 6.9 mph - N/A   Clear
10:15 PM 1.4 °F -11.3 °F -18.4 °F 39% 30.43 in 10.0 mi NNW 6.9 mph - N/A   Clear
10:35 PM 1.4 °F -14.5 °F -18.4 °F 39% 30.43 in 10.0 mi NW 10.4 mph - N/A   Clear
10:55 PM 1.4 °F -15.3 °F -18.4 °F 39% 30.43 in 10.0 mi NNW 11.5 mph - N/A   Clear
11:15 PM 1.4 °F -15.3 °F -18.4 °F 39% 30.43 in 10.0 mi NNW 11.5 mph - N/A   Clear
11:35 PM 1.4 °F -16.9 °F -18.4 °F 39% 30.43 in 10.0 mi NNW 13.8 mph 18.4 mph N/A   Clear
11:55 PM 1.4 °F -14.5 °F -18.4 °F 39% 30.44 in 10.0 mi NNW 10.4 mph - N/A   Clear